Weather History for Fremont, MI

Change the Weather History Date:

Sunday, September 15, 2013

  Actual Average (KMKG) Record (KMKG)
Temperature  
Mean Temperature 56 °F 62 °F  
Max Temperature 59 °F 72 °F 86 °F (1897)
Min Temperature 52 °F 53 °F 38 °F (1964)
Degree Days  
Heating Degree Days 10 4  
Month to date heating degree days 41  
Since 1 July heating degree days 71  
Cooling Degree Days 0 2  
Month to date cooling degree days 41  
Year to date cooling degree days 548  
Growing Degree Days 6 (Base 50)    
Moisture  
Dew Point 51 °F    
Average Humidity 86    
Maximum Humidity 100    
Minimum Humidity 71    
Precipitation  
Precipitation 0.00 in 0.13 in 1.88 in (1970)
Month to date precipitation 1.88  
Year to date precipitation 22.46  
Snow  
Snow 0.00 in 0.00 in - ()
Month to date snowfall 0.0  
Since 1 July snowfall 0.0  
Since 1 September snowfall 0.0  
Snow Depth -    
Sea Level Pressure  
Sea Level Pressure 30.06 in    
Wind  
Wind Speed 2 mph (SSE)    
Max Wind Speed 8 mph    
Max Gust Speed -    
Visibility 9 miles    
Events Fog , Rain    
T = Trace of Precipitation, MM = Missing Value Source: NWS Daily Summary

Daily Weather History Graph

Daily Weather History Graph

Search for Another Location

Airport:

Trip Planner

Search our weather history database for the weather conditions in past years. The results will help you decide how hot, cold, wet, or windy it might be!

Date:

Astronomy

Sep. 15, 2013 Rise Set
Actual Time 7:23 AM EDT 7:53 PM EDT
Civil Twilight 6:54 AM EDT 8:22 PM EDT
Nautical Twilight 6:21 AM EDT 8:56 PM EDT
Astronomical Twilight 5:46 AM EDT 9:30 PM EDT
Moon 5:25 PM EDT (9/15) 2:54 AM EDT (9/15)
Length of Visible Light 13h 27m
Length of Day
12h 29m
Waxing Gibbous, 82% of the Moon is Illuminated
Sep 15
Waxing Gibbous
Sep 19
Full
Sep 26
Last Quarter
Oct 4
New
Oct 11
First Quarter

Hourly Weather History & Observations

Time (EDT) Temp. Dew Point Humidity Pressure Visibility Wind Dir Wind Speed Gust Speed Precip Events Conditions
12:15 AM 52.2 °F 48.2 °F 86% 30.05 in 10.0 mi SE 3.5 mph - N/A   Clear
12:35 AM 52.5 °F 47.5 °F 83% 30.05 in 10.0 mi SE 4.6 mph - N/A   Clear
12:55 AM 52.7 °F 47.3 °F 82% 30.05 in 10.0 mi Calm Calm - N/A   Clear
1:15 AM 52.5 °F 46.8 °F 81% 30.05 in 10.0 mi SE 3.5 mph - N/A   Clear
1:35 AM 52.2 °F 47.3 °F 83% 30.05 in 10.0 mi Calm Calm - N/A   Clear
1:55 AM 52.5 °F 46.4 °F 80% 30.04 in 10.0 mi SE 3.5 mph - N/A   Clear
2:15 AM 52.3 °F 46.4 °F 80% 30.04 in 10.0 mi Calm Calm - N/A   Clear
2:35 AM 52.7 °F 46.0 °F 78% 30.04 in 10.0 mi SSE 3.5 mph - N/A   Clear
2:55 AM 52.9 °F 45.9 °F 77% 30.04 in 10.0 mi Calm Calm - N/A   Clear
3:15 AM 52.7 °F 45.9 °F 78% 30.04 in 10.0 mi Calm Calm - N/A   Clear
3:35 AM 52.7 °F 45.9 °F 78% 30.04 in 10.0 mi SE 3.5 mph - N/A   Clear
3:55 AM 52.9 °F 45.7 °F 77% 30.04 in 10.0 mi Calm Calm - N/A   Clear
4:15 AM 53.1 °F 45.5 °F 75% 30.04 in 10.0 mi Calm Calm - N/A   Clear
4:35 AM 53.2 °F 45.5 °F 75% 30.04 in 10.0 mi Calm Calm - N/A   Clear
4:55 AM 53.1 °F 45.5 °F 75% 30.05 in 10.0 mi Calm Calm - N/A   Clear
5:15 AM 53.2 °F 45.3 °F 74% 30.05 in 10.0 mi Calm Calm - N/A   Clear
5:35 AM 53.6 °F 45.5 °F 74% 30.05 in 10.0 mi SE 3.5 mph - N/A   Clear
5:55 AM 53.6 °F 45.5 °F 74% 30.04 in 10.0 mi SSE 4.6 mph - N/A   Clear
6:15 AM 54.0 °F 44.8 °F 71% 30.05 in 10.0 mi SSE 3.5 mph - N/A   Clear
6:35 AM 53.8 °F 45.1 °F 73% 30.05 in 10.0 mi Calm Calm - N/A   Clear
6:55 AM 53.6 °F 45.5 °F 74% 30.04 in 10.0 mi Calm Calm - N/A   Scattered Clouds
7:15 AM 53.6 °F 45.1 °F 73% 30.03 in 10.0 mi SE 4.6 mph - N/A   Overcast
7:35 AM 54.1 °F 45.1 °F 72% 30.01 in 10.0 mi ESE 3.5 mph - N/A   Overcast
7:55 AM 54.5 °F 45.3 °F 71% 30.03 in 10.0 mi Calm Calm - N/A   Overcast
8:15 AM 55.0 °F 46.0 °F 72% 30.03 in 10.0 mi Calm Calm - N/A Rain Light Rain
8:34 AM 55.4 °F 46.8 °F 73% 30.02 in 10.0 mi SSE 3.5 mph - N/A   Overcast
8:55 AM 55.9 °F 47.7 °F 74% 30.02 in 10.0 mi SSE 3.5 mph - N/A Rain Light Rain
9:15 AM 56.1 °F 49.1 °F 77% 30.02 in 10.0 mi South 5.8 mph - N/A   Light Drizzle
9:35 AM 56.3 °F 49.5 °F 78% 30.03 in 10.0 mi South 5.8 mph - N/A   Overcast
9:55 AM 57.2 °F 50.5 °F 78% 30.03 in 10.0 mi SSW 3.5 mph - N/A   Overcast
10:14 AM 58.1 °F 51.8 °F 80% 30.04 in 10.0 mi South 4.6 mph - N/A Rain Light Rain
10:35 AM 59.0 °F 52.7 °F 80% 30.04 in 10.0 mi Calm Calm - N/A   Overcast
10:55 AM 59.4 °F 53.2 °F 80% 30.05 in 10.0 mi Calm Calm - N/A Rain Light Rain
11:15 AM 59.5 °F 53.6 °F 81% 30.05 in 10.0 mi Calm Calm - N/A   Overcast
11:35 AM 58.6 °F 53.4 °F 83% 30.05 in 10.0 mi West 3.5 mph - N/A Rain Light Rain
11:54 AM 59.9 °F 54.0 °F 81% 30.05 in 10.0 mi Calm Calm - N/A   Overcast
12:15 PM 59.4 °F 53.8 °F 82% 30.05 in 10.0 mi Calm Calm - N/A   Overcast
12:35 PM 59.9 °F 53.4 °F 79% 30.06 in 10.0 mi Calm Calm - N/A   Overcast
12:55 PM 59.9 °F 53.1 °F 78% 30.05 in 10.0 mi Calm Calm - N/A   Light Drizzle
1:15 PM 59.9 °F 53.8 °F 80% 30.05 in 10.0 mi Calm Calm - N/A   Overcast
1:35 PM 59.9 °F 54.0 °F 81% 30.05 in 10.0 mi Calm Calm - N/A Rain Light Rain
1:55 PM 59.5 °F 55.6 °F 87% 30.05 in 10.0 mi Calm Calm - N/A Rain Rain
2:15 PM 58.5 °F 55.9 °F 91% 30.05 in 10.0 mi North 5.8 mph - N/A   Overcast
2:35 PM 57.4 °F 56.1 °F 96% 30.05 in 4.0 mi Calm Calm - N/A Rain Rain
2:55 PM 57.4 °F 56.5 °F 97% 30.05 in 10.0 mi Calm Calm - N/A   Overcast
3:15 PM 57.6 °F 56.5 °F 96% 30.05 in 5.0 mi Calm Calm - N/A   Drizzle
3:34 PM 57.2 °F 56.3 °F 97% 30.05 in 4.0 mi Calm Calm - N/A Rain Light Rain
3:55 PM 56.8 °F 56.1 °F 97% 30.06 in 3.0 mi Calm Calm - N/A Rain Rain
4:15 PM 56.3 °F 55.9 °F 99% 30.05 in 4.0 mi Calm Calm - N/A Rain Rain
4:35 PM 56.3 °F 55.2 °F 96% 30.05 in 10.0 mi Calm Calm - N/A Rain Light Rain
4:55 PM 56.3 °F 55.8 °F 98% 30.06 in 10.0 mi Calm Calm - N/A Rain Light Rain
5:14 PM 56.7 °F 56.1 °F 98% 30.06 in 10.0 mi Calm Calm - N/A Rain Rain
5:35 PM 56.5 °F 55.8 °F 97% 30.06 in 7.0 mi Calm Calm - N/A Rain Rain
5:55 PM 56.7 °F 56.3 °F 99% 30.07 in 10.0 mi Calm Calm - N/A   Light Drizzle
6:15 PM 56.7 °F 56.3 °F 99% 30.08 in 4.0 mi NNW 3.5 mph - N/A   Drizzle
6:35 PM 56.5 °F 56.3 °F 99% 30.08 in 7.0 mi Calm Calm - N/A   Light Drizzle
6:55 PM 56.1 °F 55.9 °F 99% 30.09 in 7.0 mi Calm Calm - N/A   Overcast
7:15 PM 56.3 °F 55.9 °F 99% 30.09 in 10.0 mi Calm Calm - N/A   Overcast
7:35 PM 56.3 °F 56.3 °F 100% 30.10 in 10.0 mi Calm Calm - N/A   Overcast
7:54 PM 56.3 °F 55.9 °F 99% 30.10 in 10.0 mi NW 3.5 mph - N/A   Overcast
8:15 PM 55.9 °F 55.8 °F 99% 30.11 in 10.0 mi Calm Calm - N/A   Overcast
8:34 PM 55.9 °F 55.9 °F 100% 30.11 in 10.0 mi Calm Calm - N/A   Overcast
8:54 PM 55.6 °F 55.4 °F 99% 30.12 in 10.0 mi Calm Calm - N/A   Scattered Clouds
9:15 PM 54.0 °F 54.0 °F 100% 30.13 in 0.5 mi Calm Calm - N/A Fog Fog
9:35 PM 52.3 °F 52.3 °F 100% 30.14 in 0.2 mi Calm Calm - N/A Fog Fog
9:55 PM 52.5 °F 52.5 °F 100% 30.14 in 0.2 mi Calm Calm - N/A Fog Fog
10:15 PM 52.2 °F 52.2 °F 100% 30.15 in 0.2 mi Calm Calm - N/A Fog Fog
10:34 PM 52.0 °F 52.0 °F 100% 30.15 in 0.5 mi West 3.5 mph - N/A Fog Fog
10:54 PM 53.8 °F 53.8 °F 100% 30.15 in 10.0 mi NW 5.8 mph - N/A   Overcast
11:15 PM 54.1 °F 54.1 °F 100% 30.16 in 10.0 mi NNW 5.8 mph - N/A   Overcast
11:34 PM 54.1 °F 54.1 °F 100% 30.17 in 10.0 mi NNW 8.1 mph - N/A   Overcast
11:55 PM 54.0 °F 54.0 °F 100% 30.18 in 10.0 mi NNW 6.9 mph - N/A   Overcast